Location: Ch�ze
(42.9000°N, 0.0333°W)
Time: 00:14:11
(UTC+00:00)

Cosmos 2082 Rocket - Pass Details

Date: 24 January 2021
Orbit: 832 x 855 km, 71.0° (Epoch: 24 February)

Event Time Altitude Azimuth Distance (km) Brightness Sun altitude
Rises 20:19:38 0° 331° (NNW) 3,433 5.8 -35.9°
Reaches altitude 10° 20:22:08 10° 328° (NNW) 2,492 5.0 -36.4°
Enters shadow 20:24:45 27° 318° (NW) 1,576 3.9 -36.9°
